Year,Month,Day,Hour,Minute,Value (Times are PST for temperature in C)
2011,09,03,00,00,11.20
2011,09,03,00,01,11.10
2011,09,03,00,02,11.10
2011,09,03,00,03,11.10
2011,09,03,00,04,11.10
2011,09,03,00,05,11.10
2011,09,03,00,06,11.10
2011,09,03,00,07,11.10
2011,09,03,00,08,11.10
2011,09,03,00,09,11.10
2011,09,03,00,10,11.10
2011,09,03,00,11,11.10
2011,09,03,00,12,11.10
2011,09,03,00,13,11.10
2011,09,03,00,14,11.10
2011,09,03,00,15,11.10
2011,09,03,00,16,11.10
2011,09,03,00,17,11.10
2011,09,03,00,18,11.10
2011,09,03,00,19,11.10
2011,09,03,00,20,11.10
2011,09,03,00,21,11.10
2011,09,03,00,22,11.10
2011,09,03,00,23,11.10
2011,09,03,00,24,11.10
2011,09,03,00,25,11.10
2011,09,03,00,26,11.10
2011,09,03,00,27,11.10
2011,09,03,00,28,11.10
2011,09,03,00,29,11.10
2011,09,03,00,30,11.10
2011,09,03,00,31,11.10
2011,09,03,00,32,11.10
2011,09,03,00,33,11.10
2011,09,03,00,34,11.10
2011,09,03,00,35,11.00
2011,09,03,00,36,10.90
2011,09,03,00,37,10.90
2011,09,03,00,38,10.90
2011,09,03,00,39,10.90
2011,09,03,00,40,10.90
2011,09,03,00,41,10.90
2011,09,03,00,42,10.90
2011,09,03,00,43,10.90
2011,09,03,00,44,10.90
2011,09,03,00,45,10.90
2011,09,03,00,46,10.80
2011,09,03,00,47,10.80
2011,09,03,00,48,10.70
2011,09,03,00,49,10.70
2011,09,03,00,50,10.60
2011,09,03,00,51,10.60
2011,09,03,00,52,10.60
2011,09,03,00,53,10.60
2011,09,03,00,54,10.70
2011,09,03,00,55,10.70
2011,09,03,00,56,10.70
2011,09,03,00,57,10.70
2011,09,03,00,58,10.70
2011,09,03,00,59,10.70
2011,09,03,01,00,10.60
2011,09,03,01,01,10.60
2011,09,03,01,02,10.60
2011,09,03,01,03,10.60
2011,09,03,01,04,10.60
2011,09,03,01,05,10.60
2011,09,03,01,06,10.60
2011,09,03,01,07,10.60
2011,09,03,01,08,10.60
2011,09,03,01,09,10.60
2011,09,03,01,10,10.50
2011,09,03,01,11,10.40
2011,09,03,01,12,10.40
2011,09,03,01,13,10.40
2011,09,03,01,14,10.40
2011,09,03,01,15,10.40
2011,09,03,01,16,10.40
2011,09,03,01,17,10.40
2011,09,03,01,18,10.40
2011,09,03,01,19,10.30
2011,09,03,01,20,10.30
2011,09,03,01,21,10.30
2011,09,03,01,22,10.20
2011,09,03,01,23,10.20
2011,09,03,01,24,10.20
2011,09,03,01,25,10.20
2011,09,03,01,26,10.20
2011,09,03,01,27,10.10
2011,09,03,01,28,10.10
2011,09,03,01,29,10.10
2011,09,03,01,30,10.10
2011,09,03,01,31,10.10
2011,09,03,01,32,10.10
2011,09,03,01,33,10.10
2011,09,03,01,34,10.10
2011,09,03,01,35,10.10
2011,09,03,01,36,10.00
2011,09,03,01,37,9.90
2011,09,03,01,38,9.90
2011,09,03,01,39,9.90
2011,09,03,01,40,9.90
2011,09,03,01,41,9.90
2011,09,03,01,42,9.90
2011,09,03,01,43,9.90
2011,09,03,01,44,9.90
2011,09,03,01,45,10.00
2011,09,03,01,46,10.10
2011,09,03,01,47,10.10
2011,09,03,01,48,10.10
2011,09,03,01,49,10.10
2011,09,03,01,50,10.10
2011,09,03,01,51,10.10
2011,09,03,01,52,10.10
2011,09,03,01,53,10.10
2011,09,03,01,54,10.00
2011,09,03,01,55,10.00
2011,09,03,01,56,10.10
2011,09,03,01,57,10.10
2011,09,03,01,58,10.10
2011,09,03,01,59,10.00
2011,09,03,02,00,9.90
2011,09,03,02,01,9.90
2011,09,03,02,02,9.90
2011,09,03,02,03,9.90
2011,09,03,02,04,9.90
2011,09,03,02,05,9.90
2011,09,03,02,06,9.90
2011,09,03,02,07,9.90
2011,09,03,02,08,9.90
2011,09,03,02,09,9.90
2011,09,03,02,10,9.90
2011,09,03,02,11,9.90
2011,09,03,02,12,9.80
2011,09,03,02,13,9.80
2011,09,03,02,14,9.80
2011,09,03,02,15,9.70
2011,09,03,02,16,9.70
2011,09,03,02,17,9.70
2011,09,03,02,18,9.60
2011,09,03,02,19,9.60
2011,09,03,02,20,9.60
2011,09,03,02,21,9.60
2011,09,03,02,22,9.60
2011,09,03,02,23,9.60
2011,09,03,02,24,9.60
2011,09,03,02,25,9.60
2011,09,03,02,26,9.60
2011,09,03,02,27,9.60
2011,09,03,02,28,9.50
2011,09,03,02,29,9.50
2011,09,03,02,30,9.60
2011,09,03,02,31,9.60
2011,09,03,02,32,9.60
2011,09,03,02,33,9.60
2011,09,03,02,34,9.60
2011,09,03,02,35,9.60
2011,09,03,02,36,9.70
2011,09,03,02,37,9.70
2011,09,03,02,38,9.70
2011,09,03,02,39,9.70
2011,09,03,02,40,9.70
2011,09,03,02,41,9.70
2011,09,03,02,42,9.70
2011,09,03,02,43,9.70
2011,09,03,02,44,9.70
2011,09,03,02,45,9.70
2011,09,03,02,46,9.70
2011,09,03,02,47,9.70
2011,09,03,02,48,9.70
2011,09,03,02,49,9.70
2011,09,03,02,50,9.70
2011,09,03,02,51,9.70
2011,09,03,02,52,9.70
2011,09,03,02,53,9.70
2011,09,03,02,54,9.70
2011,09,03,02,55,9.70
2011,09,03,02,56,9.70
2011,09,03,02,57,9.70
2011,09,03,02,58,9.70
2011,09,03,02,59,9.70
2011,09,03,03,00,9.70
2011,09,03,03,01,9.70
2011,09,03,03,02,9.70
2011,09,03,03,03,9.60
2011,09,03,03,04,9.60
2011,09,03,03,05,9.50
2011,09,03,03,06,9.50
2011,09,03,03,07,9.40
2011,09,03,03,08,9.40
2011,09,03,03,09,9.40
2011,09,03,03,10,9.50
2011,09,03,03,11,9.50
2011,09,03,03,12,9.40
2011,09,03,03,13,9.40
2011,09,03,03,14,9.40
2011,09,03,03,15,9.40
2011,09,03,03,16,9.40
2011,09,03,03,17,9.40
2011,09,03,03,18,9.30
2011,09,03,03,19,9.30
2011,09,03,03,20,9.30
2011,09,03,03,21,9.20
2011,09,03,03,22,9.20
2011,09,03,03,23,9.20
2011,09,03,03,24,9.20
2011,09,03,03,25,9.20
2011,09,03,03,26,9.20
2011,09,03,03,27,9.20
2011,09,03,03,28,9.20
2011,09,03,03,29,9.10
2011,09,03,03,30,9.10
2011,09,03,03,31,9.10
2011,09,03,03,32,9.00
2011,09,03,03,33,9.00
2011,09,03,03,34,9.00
2011,09,03,03,35,9.00
2011,09,03,03,36,8.90
2011,09,03,03,37,8.90
2011,09,03,03,38,8.90
2011,09,03,03,39,8.90
2011,09,03,03,40,8.90
2011,09,03,03,41,8.90
2011,09,03,03,42,8.90
2011,09,03,03,43,8.90
2011,09,03,03,44,8.90
2011,09,03,03,45,8.90
2011,09,03,03,46,8.90
2011,09,03,03,47,8.90
2011,09,03,03,48,8.80
2011,09,03,03,49,8.80
2011,09,03,03,50,8.70
2011,09,03,03,51,8.70
2011,09,03,03,52,8.70
2011,09,03,03,53,8.70
2011,09,03,03,54,8.70
2011,09,03,03,55,8.70
2011,09,03,03,56,8.70
2011,09,03,03,57,8.70
2011,09,03,03,58,8.70
2011,09,03,03,59,8.70
2011,09,03,04,00,8.80
2011,09,03,04,01,8.80
2011,09,03,04,02,8.80
2011,09,03,04,03,8.90
2011,09,03,04,04,8.90
2011,09,03,04,05,8.90
2011,09,03,04,06,8.90
2011,09,03,04,07,8.80
2011,09,03,04,08,8.80
2011,09,03,04,09,8.80
2011,09,03,04,10,8.80
2011,09,03,04,11,8.80
2011,09,03,04,12,8.80
2011,09,03,04,13,8.90
2011,09,03,04,14,8.90
2011,09,03,04,15,8.90
2011,09,03,04,16,9.00
2011,09,03,04,17,9.00
2011,09,03,04,18,9.00
2011,09,03,04,19,9.00
2011,09,03,04,20,9.10
2011,09,03,04,21,9.10
2011,09,03,04,22,9.00
2011,09,03,04,23,9.00
2011,09,03,04,24,9.00
2011,09,03,04,25,8.90
2011,09,03,04,26,8.90
2011,09,03,04,27,8.90
2011,09,03,04,28,8.80
2011,09,03,04,29,8.80
2011,09,03,04,30,8.80
2011,09,03,04,31,8.80
2011,09,03,04,32,8.70
2011,09,03,04,33,8.70
2011,09,03,04,34,8.70
2011,09,03,04,35,8.70
2011,09,03,04,36,8.70
2011,09,03,04,37,8.70
2011,09,03,04,38,8.70
2011,09,03,04,39,8.70
2011,09,03,04,40,8.70
2011,09,03,04,41,8.70
2011,09,03,04,42,8.70
2011,09,03,04,43,8.70
2011,09,03,04,44,8.70
2011,09,03,04,45,8.70
2011,09,03,04,46,8.70
2011,09,03,04,47,8.60
2011,09,03,04,48,8.60
2011,09,03,04,49,8.50
2011,09,03,04,50,8.50
2011,09,03,04,51,8.50
2011,09,03,04,52,8.40
2011,09,03,04,53,8.40
2011,09,03,04,54,8.40
2011,09,03,04,55,8.40
2011,09,03,04,56,8.40
2011,09,03,04,57,8.50
2011,09,03,04,58,8.50
2011,09,03,04,59,8.60
2011,09,03,05,00,8.70
2011,09,03,05,01,8.70
2011,09,03,05,02,8.70
2011,09,03,05,03,8.70
2011,09,03,05,04,8.70
2011,09,03,05,05,8.80
2011,09,03,05,06,8.80
2011,09,03,05,07,8.80
2011,09,03,05,08,8.80
2011,09,03,05,09,8.80
2011,09,03,05,10,8.80
2011,09,03,05,11,8.80
2011,09,03,05,12,8.80
2011,09,03,05,13,8.80
2011,09,03,05,14,8.80
2011,09,03,05,15,8.80
2011,09,03,05,16,8.80
2011,09,03,05,17,8.80
2011,09,03,05,18,8.80
2011,09,03,05,19,8.80
2011,09,03,05,20,8.70
2011,09,03,05,21,8.70
2011,09,03,05,22,8.70
2011,09,03,05,23,8.70
2011,09,03,05,24,8.70
2011,09,03,05,25,8.70
2011,09,03,05,26,8.70
2011,09,03,05,27,8.70
2011,09,03,05,28,8.70
2011,09,03,05,29,8.70
2011,09,03,05,30,8.70
2011,09,03,05,31,8.70
2011,09,03,05,32,8.70
2011,09,03,05,33,8.70
2011,09,03,05,34,8.70
2011,09,03,05,35,8.70
2011,09,03,05,36,8.70
2011,09,03,05,37,8.70
2011,09,03,05,38,8.70
2011,09,03,05,39,8.70
2011,09,03,05,40,8.70
2011,09,03,05,41,8.70
2011,09,03,05,42,8.70
2011,09,03,05,43,8.70
2011,09,03,05,44,8.70
2011,09,03,05,45,8.70
2011,09,03,05,46,8.70
2011,09,03,05,47,8.70
2011,09,03,05,48,8.70
2011,09,03,05,49,8.70
2011,09,03,05,50,8.70
2011,09,03,05,51,8.70
2011,09,03,05,52,8.70
2011,09,03,05,53,8.70
2011,09,03,05,54,8.70
2011,09,03,05,55,8.70
2011,09,03,05,56,8.70
2011,09,03,05,57,8.70
2011,09,03,05,58,8.50
2011,09,03,05,59,8.40
2011,09,03,06,00,8.30
2011,09,03,06,01,8.20
2011,09,03,06,02,8.20
2011,09,03,06,03,8.20
2011,09,03,06,04,8.20
2011,09,03,06,05,8.30
2011,09,03,06,06,8.30
2011,09,03,06,07,8.50
2011,09,03,06,08,8.60
2011,09,03,06,09,8.70
2011,09,03,06,10,8.90
2011,09,03,06,11,9.10
2011,09,03,06,12,9.30
2011,09,03,06,13,9.40
2011,09,03,06,14,9.60
2011,09,03,06,15,9.70
2011,09,03,06,16,9.90
2011,09,03,06,17,10.10
2011,09,03,06,18,10.20
2011,09,03,06,19,10.30
2011,09,03,06,20,10.40
2011,09,03,06,21,10.40
2011,09,03,06,22,10.40
2011,09,03,06,23,10.50
2011,09,03,06,24,10.60
2011,09,03,06,25,10.70
2011,09,03,06,26,10.80
2011,09,03,06,27,10.90
2011,09,03,06,28,10.90
2011,09,03,06,29,11.00
2011,09,03,06,30,11.10
2011,09,03,06,31,11.20
2011,09,03,06,32,11.30
2011,09,03,06,33,11.40
2011,09,03,06,34,11.40
2011,09,03,06,35,11.50
2011,09,03,06,36,11.60
2011,09,03,06,37,11.60
2011,09,03,06,38,11.70
2011,09,03,06,39,11.70
2011,09,03,06,40,11.80
2011,09,03,06,41,11.80
2011,09,03,06,42,11.90
2011,09,03,06,43,12.00
2011,09,03,06,44,12.00
2011,09,03,06,45,12.10
2011,09,03,06,46,12.10
2011,09,03,06,47,12.10
2011,09,03,06,48,12.10
2011,09,03,06,49,12.20
2011,09,03,06,50,12.20
2011,09,03,06,51,12.30
2011,09,03,06,52,12.30
2011,09,03,06,53,12.30
2011,09,03,06,54,12.40
2011,09,03,06,55,12.40
2011,09,03,06,56,12.40
2011,09,03,06,57,12.40
2011,09,03,06,58,12.40
2011,09,03,06,59,12.50
2011,09,03,07,00,12.50
2011,09,03,07,01,12.50
2011,09,03,07,02,12.50
2011,09,03,07,03,12.50
2011,09,03,07,04,12.60
2011,09,03,07,05,12.60
2011,09,03,07,06,12.70
2011,09,03,07,07,12.70
2011,09,03,07,08,12.70
2011,09,03,07,09,12.80
2011,09,03,07,10,12.80
2011,09,03,07,11,12.80
2011,09,03,07,12,12.80
2011,09,03,07,13,12.80
2011,09,03,07,14,12.80
2011,09,03,07,15,12.80
2011,09,03,07,16,12.70
2011,09,03,07,17,12.70
2011,09,03,07,18,12.70
2011,09,03,07,19,12.60
2011,09,03,07,20,12.60
2011,09,03,07,21,12.70
2011,09,03,07,22,12.70
2011,09,03,07,23,12.70
2011,09,03,07,24,12.60
2011,09,03,07,25,12.60
2011,09,03,07,26,12.60
2011,09,03,07,27,12.60
2011,09,03,07,28,12.70
2011,09,03,07,29,12.70
2011,09,03,07,30,12.80
2011,09,03,07,31,12.80
2011,09,03,07,32,12.90
2011,09,03,07,33,12.90
2011,09,03,07,34,13.00
2011,09,03,07,35,13.10
2011,09,03,07,36,13.20
2011,09,03,07,37,13.20
2011,09,03,07,38,13.30
2011,09,03,07,39,13.30
2011,09,03,07,40,13.40
2011,09,03,07,41,13.40
2011,09,03,07,42,13.50
2011,09,03,07,43,13.50
2011,09,03,07,44,13.60
2011,09,03,07,45,13.60
2011,09,03,07,46,13.60
2011,09,03,07,47,13.70
2011,09,03,07,48,13.70
2011,09,03,07,49,13.70
2011,09,03,07,50,13.70
2011,09,03,07,51,13.70
2011,09,03,07,52,13.80
2011,09,03,07,53,13.80
2011,09,03,07,54,13.80
2011,09,03,07,55,13.80
2011,09,03,07,56,13.80
2011,09,03,07,57,13.80
2011,09,03,07,58,13.80
2011,09,03,07,59,13.80
2011,09,03,08,00,13.90
2011,09,03,08,01,13.90
2011,09,03,08,02,13.90
2011,09,03,08,03,13.90
2011,09,03,08,04,14.00
2011,09,03,08,05,14.00
2011,09,03,08,06,14.10
2011,09,03,08,07,14.20
2011,09,03,08,08,14.20
2011,09,03,08,09,14.30
2011,09,03,08,10,14.40
2011,09,03,08,11,14.50
2011,09,03,08,12,14.60
2011,09,03,08,13,14.70
2011,09,03,08,14,14.70
2011,09,03,08,15,14.80
2011,09,03,08,16,14.80
2011,09,03,08,17,14.90
2011,09,03,08,18,15.00
2011,09,03,08,19,15.00
2011,09,03,08,20,15.10
2011,09,03,08,21,15.10
2011,09,03,08,22,15.20
2011,09,03,08,23,15.30
2011,09,03,08,24,15.30
2011,09,03,08,25,15.40
2011,09,03,08,26,15.50
2011,09,03,08,27,15.60
2011,09,03,08,28,15.60
2011,09,03,08,29,15.70
2011,09,03,08,30,15.70
2011,09,03,08,31,15.80
2011,09,03,08,32,15.80
2011,09,03,08,33,15.80
2011,09,03,08,34,15.80
2011,09,03,08,35,15.90
2011,09,03,08,36,15.90
2011,09,03,08,37,16.00
2011,09,03,08,38,16.10
2011,09,03,08,39,16.10
2011,09,03,08,40,16.10
2011,09,03,08,41,16.10
2011,09,03,08,42,16.10
2011,09,03,08,43,16.20
2011,09,03,08,44,16.20
2011,09,03,08,45,16.20
2011,09,03,08,46,16.30
2011,09,03,08,47,16.30
2011,09,03,08,48,16.30
2011,09,03,08,49,16.30
2011,09,03,08,50,16.30
2011,09,03,08,51,16.40
2011,09,03,08,52,16.40
2011,09,03,08,53,16.40
2011,09,03,08,54,16.40
2011,09,03,08,55,16.40
2011,09,03,08,56,16.50
2011,09,03,08,57,16.60
2011,09,03,08,58,16.60
2011,09,03,08,59,16.60
2011,09,03,09,00,16.60
2011,09,03,09,01,16.60
2011,09,03,09,02,16.70
2011,09,03,09,03,16.70
2011,09,03,09,04,16.70
2011,09,03,09,05,16.70
2011,09,03,09,06,16.70
2011,09,03,09,07,16.70
2011,09,03,09,08,16.70
2011,09,03,09,09,16.70
2011,09,03,09,10,16.80
2011,09,03,09,11,16.80
2011,09,03,09,12,16.80
2011,09,03,09,13,16.80
2011,09,03,09,14,16.90
2011,09,03,09,15,16.90
2011,09,03,09,16,16.90
2011,09,03,09,17,16.90
2011,09,03,09,18,17.00
2011,09,03,09,19,17.00
2011,09,03,09,20,17.00
2011,09,03,09,21,17.10
2011,09,03,09,22,17.20
2011,09,03,09,23,17.20
2011,09,03,09,24,17.30
2011,09,03,09,25,17.30
2011,09,03,09,26,17.40
2011,09,03,09,27,17.40
2011,09,03,09,28,17.40
2011,09,03,09,29,17.50
2011,09,03,09,30,17.50
2011,09,03,09,31,17.50
2011,09,03,09,32,17.60
2011,09,03,09,33,17.60
2011,09,03,09,34,17.60
2011,09,03,09,35,17.60
2011,09,03,09,36,17.60
2011,09,03,09,37,17.60
2011,09,03,09,38,17.70
2011,09,03,09,39,17.70
2011,09,03,09,40,17.80
2011,09,03,09,41,17.80
2011,09,03,09,42,17.80
2011,09,03,09,43,17.90
2011,09,03,09,44,17.90
2011,09,03,09,45,17.90
2011,09,03,09,46,17.90
2011,09,03,09,47,18.00
2011,09,03,09,48,18.10
2011,09,03,09,49,18.10
2011,09,03,09,50,18.20
2011,09,03,09,51,18.20
2011,09,03,09,52,18.20
2011,09,03,09,53,18.20
2011,09,03,09,54,18.20
2011,09,03,09,55,18.20
2011,09,03,09,56,18.20
2011,09,03,09,57,18.20
2011,09,03,09,58,18.20
2011,09,03,09,59,18.20
2011,09,03,10,00,18.20
2011,09,03,10,01,18.20
2011,09,03,10,02,18.20
2011,09,03,10,03,18.20
2011,09,03,10,04,18.20
2011,09,03,10,05,18.20
2011,09,03,10,06,18.20
2011,09,03,10,07,18.30
2011,09,03,10,08,18.40
2011,09,03,10,09,18.40
2011,09,03,10,10,18.40
2011,09,03,10,11,18.50
2011,09,03,10,12,18.60
2011,09,03,10,13,18.60
2011,09,03,10,14,18.70
2011,09,03,10,15,18.80
2011,09,03,10,16,18.90
2011,09,03,10,17,18.90
2011,09,03,10,18,18.90
2011,09,03,10,19,18.90
2011,09,03,10,20,18.90
2011,09,03,10,21,19.00
2011,09,03,10,22,19.10
2011,09,03,10,23,18.90
2011,09,03,10,24,18.90
2011,09,03,10,25,19.00
2011,09,03,10,26,18.90
2011,09,03,10,27,18.90
2011,09,03,10,28,18.90
2011,09,03,10,29,18.90
2011,09,03,10,30,18.90
2011,09,03,10,31,18.80
2011,09,03,10,32,18.90
2011,09,03,10,33,18.90
2011,09,03,10,34,18.90
2011,09,03,10,35,18.90
2011,09,03,10,36,18.90
2011,09,03,10,37,18.90
2011,09,03,10,38,19.10
2011,09,03,10,39,19.10
2011,09,03,10,40,19.10
2011,09,03,10,41,19.00
2011,09,03,10,42,18.90
2011,09,03,10,43,18.90
2011,09,03,10,44,18.90
2011,09,03,10,45,18.90
2011,09,03,10,46,18.90
2011,09,03,10,47,18.90
2011,09,03,10,48,19.00
2011,09,03,10,49,19.10
2011,09,03,10,50,19.10
2011,09,03,10,51,19.20
2011,09,03,10,52,19.20
2011,09,03,10,53,19.20
2011,09,03,10,54,19.20
2011,09,03,10,55,19.30
2011,09,03,10,56,19.40
2011,09,03,10,57,19.40
2011,09,03,10,58,19.50
2011,09,03,10,59,19.50
2011,09,03,11,00,19.60
2011,09,03,11,01,19.60
2011,09,03,11,02,19.60
2011,09,03,11,03,19.50
2011,09,03,11,04,19.40
2011,09,03,11,05,19.30
2011,09,03,11,06,19.20
2011,09,03,11,07,19.10
2011,09,03,11,08,19.20
2011,09,03,11,09,19.20
2011,09,03,11,10,19.10
2011,09,03,11,11,19.20
2011,09,03,11,12,19.20
2011,09,03,11,13,19.40
2011,09,03,11,14,19.50
2011,09,03,11,15,19.50
2011,09,03,11,16,19.60
2011,09,03,11,17,19.70
2011,09,03,11,18,19.80
2011,09,03,11,19,19.90
2011,09,03,11,20,19.90
2011,09,03,11,21,19.90
2011,09,03,11,22,19.90
2011,09,03,11,23,20.00
2011,09,03,11,24,19.90
2011,09,03,11,25,19.90
2011,09,03,11,26,19.80
2011,09,03,11,27,19.70
2011,09,03,11,28,19.60
2011,09,03,11,29,19.50
2011,09,03,11,30,19.60
2011,09,03,11,31,19.70
2011,09,03,11,32,19.70
2011,09,03,11,33,19.60
2011,09,03,11,34,19.60
2011,09,03,11,35,19.60
2011,09,03,11,36,19.60
2011,09,03,11,37,19.60
2011,09,03,11,38,19.60
2011,09,03,11,39,19.70
2011,09,03,11,40,19.80
2011,09,03,11,41,19.90
2011,09,03,11,42,20.10
2011,09,03,11,43,20.20
2011,09,03,11,44,20.30
2011,09,03,11,45,20.30
2011,09,03,11,46,20.30
2011,09,03,11,47,20.30
2011,09,03,11,48,20.30
2011,09,03,11,49,20.30
2011,09,03,11,50,20.30
2011,09,03,11,51,20.30
2011,09,03,11,52,20.20
2011,09,03,11,53,20.30
2011,09,03,11,54,20.30
2011,09,03,11,55,20.40
2011,09,03,11,56,20.40
2011,09,03,11,57,20.50
2011,09,03,11,58,20.50
2011,09,03,11,59,20.50
2011,09,03,12,00,20.60
2011,09,03,12,01,20.70
2011,09,03,12,02,20.70
2011,09,03,12,03,20.60
2011,09,03,12,04,20.60
2011,09,03,12,05,20.70
2011,09,03,12,06,20.70
2011,09,03,12,07,20.70
2011,09,03,12,08,20.70
2011,09,03,12,09,20.80
2011,09,03,12,10,20.80
2011,09,03,12,11,20.90
2011,09,03,12,12,20.90
2011,09,03,12,13,21.00
2011,09,03,12,14,21.00
2011,09,03,12,15,21.10
2011,09,03,12,16,21.20
2011,09,03,12,17,21.30
2011,09,03,12,18,21.30
2011,09,03,12,19,21.30
2011,09,03,12,20,21.30
2011,09,03,12,21,21.30
2011,09,03,12,22,21.30
2011,09,03,12,23,21.40
2011,09,03,12,24,21.30
2011,09,03,12,25,21.30
2011,09,03,12,26,21.30
2011,09,03,12,27,21.30
2011,09,03,12,28,21.30
2011,09,03,12,29,21.30
2011,09,03,12,30,21.30
2011,09,03,12,31,21.30
2011,09,03,12,32,21.30
2011,09,03,12,33,21.30
2011,09,03,12,34,21.30
2011,09,03,12,35,21.30
2011,09,03,12,36,21.30
2011,09,03,12,37,21.30
2011,09,03,12,38,21.30
2011,09,03,12,39,21.30
2011,09,03,12,40,21.50
2011,09,03,12,41,21.60
2011,09,03,12,42,21.70
2011,09,03,12,43,21.80
2011,09,03,12,44,21.80
2011,09,03,12,45,21.70
2011,09,03,12,46,21.60
2011,09,03,12,47,21.70
2011,09,03,12,48,21.70
2011,09,03,12,49,21.70
2011,09,03,12,50,21.80
2011,09,03,12,51,21.80
2011,09,03,12,52,21.90
2011,09,03,12,53,21.90
2011,09,03,12,54,21.80
2011,09,03,12,55,21.70
2011,09,03,12,56,21.60
2011,09,03,12,57,21.60
2011,09,03,12,58,21.60
2011,09,03,12,59,21.60
2011,09,03,13,00,21.60
2011,09,03,13,01,21.60
2011,09,03,13,02,21.60
2011,09,03,13,03,21.60
2011,09,03,13,04,21.60
2011,09,03,13,05,21.60
2011,09,03,13,06,21.60
2011,09,03,13,07,21.60
2011,09,03,13,08,21.60
2011,09,03,13,09,21.60
2011,09,03,13,10,21.60
2011,09,03,13,11,21.60
2011,09,03,13,12,21.70
2011,09,03,13,13,21.70
2011,09,03,13,14,21.80
2011,09,03,13,15,21.70
2011,09,03,13,16,21.70
2011,09,03,13,17,21.60
2011,09,03,13,18,21.60
2011,09,03,13,19,21.60
2011,09,03,13,20,21.70
2011,09,03,13,21,21.80
2011,09,03,13,22,21.90
2011,09,03,13,23,22.00
2011,09,03,13,24,22.10
2011,09,03,13,25,22.10
2011,09,03,13,26,22.20
2011,09,03,13,27,22.20
2011,09,03,13,28,22.20
2011,09,03,13,29,22.20
2011,09,03,13,30,22.10
2011,09,03,13,31,22.10
2011,09,03,13,32,22.10
2011,09,03,13,33,22.20
2011,09,03,13,34,22.20
2011,09,03,13,35,22.30
2011,09,03,13,36,22.40
2011,09,03,13,37,22.30
2011,09,03,13,38,22.30
2011,09,03,13,39,22.20
2011,09,03,13,40,22.30
2011,09,03,13,41,22.30
2011,09,03,13,42,22.40
2011,09,03,13,43,22.40
2011,09,03,13,44,22.50
2011,09,03,13,45,22.60
2011,09,03,13,46,22.70
2011,09,03,13,47,22.70
2011,09,03,13,48,22.60
2011,09,03,13,49,22.60
2011,09,03,13,50,22.50
2011,09,03,13,51,22.60
2011,09,03,13,52,22.60
2011,09,03,13,53,22.60
2011,09,03,13,54,22.70
2011,09,03,13,55,22.70
2011,09,03,13,56,22.70
2011,09,03,13,57,22.80
2011,09,03,13,58,22.90
2011,09,03,13,59,23.00
2011,09,03,14,00,23.10
2011,09,03,14,01,23.00
2011,09,03,14,02,23.00
2011,09,03,14,03,23.10
2011,09,03,14,04,23.10
2011,09,03,14,05,23.10
2011,09,03,14,06,23.00
2011,09,03,14,07,22.90
2011,09,03,14,08,22.90
2011,09,03,14,09,22.90
2011,09,03,14,10,22.90
2011,09,03,14,11,22.90
2011,09,03,14,12,22.90
2011,09,03,14,13,23.00
2011,09,03,14,14,23.10
2011,09,03,14,15,23.10
2011,09,03,14,16,23.10
2011,09,03,14,17,23.20
2011,09,03,14,18,23.20
2011,09,03,14,19,23.20
2011,09,03,14,20,23.20
2011,09,03,14,21,23.20
2011,09,03,14,22,23.30
2011,09,03,14,23,23.30
2011,09,03,14,24,23.20
2011,09,03,14,25,23.30
2011,09,03,14,26,23.30
2011,09,03,14,27,23.30
2011,09,03,14,28,23.30
2011,09,03,14,29,23.30
2011,09,03,14,30,23.30
2011,09,03,14,31,23.30
2011,09,03,14,32,23.30
2011,09,03,14,33,23.30
2011,09,03,14,34,23.30
2011,09,03,14,35,23.30
2011,09,03,14,36,23.30
2011,09,03,14,37,23.40
2011,09,03,14,38,23.50
2011,09,03,14,39,23.60
2011,09,03,14,40,23.70
2011,09,03,14,41,23.80
2011,09,03,14,42,23.80
2011,09,03,14,43,23.90
2011,09,03,14,44,23.90
2011,09,03,14,45,23.90
2011,09,03,14,46,23.90
2011,09,03,14,47,23.80
2011,09,03,14,48,23.70
2011,09,03,14,49,23.70
2011,09,03,14,50,23.70
2011,09,03,14,51,23.70
2011,09,03,14,52,23.70
2011,09,03,14,53,23.70
2011,09,03,14,54,23.70
2011,09,03,14,55,23.70
2011,09,03,14,56,23.60
2011,09,03,14,57,23.60
2011,09,03,14,58,23.70
2011,09,03,14,59,23.70
2011,09,03,15,00,23.80
2011,09,03,15,01,23.80
2011,09,03,15,02,23.90
2011,09,03,15,03,23.90
2011,09,03,15,04,23.90
2011,09,03,15,05,24.00
2011,09,03,15,06,24.10
2011,09,03,15,07,24.10
2011,09,03,15,08,24.10
2011,09,03,15,09,24.10
2011,09,03,15,10,24.10
2011,09,03,15,11,24.00
2011,09,03,15,12,23.90
2011,09,03,15,13,24.00
2011,09,03,15,14,24.10
2011,09,03,15,15,24.10
2011,09,03,15,16,24.10
2011,09,03,15,17,24.10
2011,09,03,15,18,24.10
2011,09,03,15,19,24.10
2011,09,03,15,20,24.10
2011,09,03,15,21,24.10
2011,09,03,15,22,24.10
2011,09,03,15,23,24.10
2011,09,03,15,24,24.10
2011,09,03,15,25,24.10
2011,09,03,15,26,24.20
2011,09,03,15,27,24.30
2011,09,03,15,28,24.30
2011,09,03,15,29,24.30
2011,09,03,15,30,24.30
2011,09,03,15,31,24.30
2011,09,03,15,32,24.20
2011,09,03,15,33,24.10
2011,09,03,15,34,24.10
2011,09,03,15,35,24.10
2011,09,03,15,36,24.10
2011,09,03,15,37,24.20
2011,09,03,15,38,24.20
2011,09,03,15,39,24.30
2011,09,03,15,40,24.30
2011,09,03,15,41,24.30
2011,09,03,15,42,24.30
2011,09,03,15,43,24.30
2011,09,03,15,44,24.30
2011,09,03,15,45,24.40
2011,09,03,15,46,24.40
2011,09,03,15,47,24.40
2011,09,03,15,48,24.40
2011,09,03,15,49,24.30
2011,09,03,15,50,24.30
2011,09,03,15,51,24.30
2011,09,03,15,52,24.30
2011,09,03,15,53,24.30
2011,09,03,15,54,24.30
2011,09,03,15,55,24.20
2011,09,03,15,56,24.20
2011,09,03,15,57,24.20
2011,09,03,15,58,24.20
2011,09,03,15,59,24.10
2011,09,03,16,00,24.10
2011,09,03,16,01,24.10
2011,09,03,16,02,24.10
2011,09,03,16,03,24.10
2011,09,03,16,04,24.10
2011,09,03,16,05,24.10
2011,09,03,16,06,24.10
2011,09,03,16,07,24.10
2011,09,03,16,08,24.10
2011,09,03,16,09,24.10
2011,09,03,16,10,24.10
2011,09,03,16,11,24.10
2011,09,03,16,12,24.10
2011,09,03,16,13,24.20
2011,09,03,16,14,24.20
2011,09,03,16,15,24.20
2011,09,03,16,16,24.20
2011,09,03,16,17,24.20
2011,09,03,16,18,24.20
2011,09,03,16,19,24.20
2011,09,03,16,20,24.30
2011,09,03,16,21,24.40
2011,09,03,16,22,24.50
2011,09,03,16,23,24.50
2011,09,03,16,24,24.60
2011,09,03,16,25,24.60
2011,09,03,16,26,24.70
2011,09,03,16,27,24.70
2011,09,03,16,28,24.70
2011,09,03,16,29,24.70
2011,09,03,16,30,24.80
2011,09,03,16,31,24.80
2011,09,03,16,32,24.70
2011,09,03,16,33,24.60
2011,09,03,16,34,24.50
2011,09,03,16,35,24.40
2011,09,03,16,36,24.40
2011,09,03,16,37,24.30
2011,09,03,16,38,24.20
2011,09,03,16,39,24.10
2011,09,03,16,40,24.10
2011,09,03,16,41,24.10
2011,09,03,16,42,24.10
2011,09,03,16,43,24.10
2011,09,03,16,44,24.10
2011,09,03,16,45,24.10
2011,09,03,16,46,24.10
2011,09,03,16,47,24.20
2011,09,03,16,48,24.20
2011,09,03,16,49,24.20
2011,09,03,16,50,24.20
2011,09,03,16,51,24.20
2011,09,03,16,52,24.20
2011,09,03,16,53,24.20
2011,09,03,16,54,24.20
2011,09,03,16,55,24.20
2011,09,03,16,56,24.30
2011,09,03,16,57,24.30
2011,09,03,16,58,24.40
2011,09,03,16,59,24.40
2011,09,03,17,00,24.50
2011,09,03,17,01,24.50
2011,09,03,17,02,24.30
2011,09,03,17,03,24.10
2011,09,03,17,04,24.00
2011,09,03,17,05,23.90
2011,09,03,17,06,23.90
2011,09,03,17,07,23.70
2011,09,03,17,08,23.40
2011,09,03,17,09,23.20
2011,09,03,17,10,22.90
2011,09,03,17,11,22.80
2011,09,03,17,12,22.80
2011,09,03,17,13,22.80
2011,09,03,17,14,22.80
2011,09,03,17,15,22.80
2011,09,03,17,16,22.70
2011,09,03,17,17,22.60
2011,09,03,17,18,22.60
2011,09,03,17,19,22.60
2011,09,03,17,20,22.70
2011,09,03,17,21,22.80
2011,09,03,17,22,22.90
2011,09,03,17,23,23.10
2011,09,03,17,24,23.30
2011,09,03,17,25,23.40
2011,09,03,17,26,23.50
2011,09,03,17,27,23.70
2011,09,03,17,28,23.90
2011,09,03,17,29,24.10
2011,09,03,17,30,24.20